Torna al catalogo

FENGYUN 1C DEB

AttivoSSO
NORAD 30251·DEBRIS·🇨🇳 China

Lanciato May 10, 1999 da Taiyuan Satellite Launch Center

Loading…

Prossimi Passaggi (prossime 24 ore)

TLE

AggiornatoSource: Space-Track

Epoca: Sep 14, 2026, 10:38 UTC

1 30251U 99025XL  26257.44323126  .00000584  00000-0  24213-3 0  9995
2 30251  99.0261 111.1627 0050245 250.7438 230.4256 14.29864267 20816

Traccia FENGYUN 1C DEB in tempo reale con AllMySat

Download on the App Store